Location: Krasnoyarskiy
(51.1133°N, 71.6497°E)
Time: 19:14:06
(UTC+00:00)

Daily predictions for brighter satellites

Satellite Brightness Start Highest point End
(mag) Time Altitude Azimuth Time Altitude Azimuth Time Altitude Azimuth
SL-8 Rocket 4.3 12:31:52 10° SSW 12:38:12 79° WNW 12:44:32 10° N
Cosmos 2263 Rocket 2.3 12:33:27 10° NNW 12:38:59 59° NE 12:44:28 10° SE
Cosmos 1821 Rocket 4.3 12:33:47 10° SSE 12:39:51 47° E 12:45:53 10° NNE
ARGOS 3.7 12:35:39 10° SE 12:40:35 37° ENE 12:45:33 10° N
Cosmos 2369 3.8 12:35:12 10° SSW 12:40:45 61° ESE 12:46:22 10° NE
MOS 1-B 4.3 12:35:31 10° SSE 12:41:17 73° ENE 12:47:05 10° NNW
CZ-2C R/B 4.0 12:36:18 10° S 12:42:04 62° WSW 12:47:46 10° NNW
Cosmos 2218 Rocket 4.2 12:36:00 10° S 12:42:19 86° W 12:48:45 10° N
Cosmos 405 Rocket 3.2 12:39:10 10° N 12:42:55 40° ENE 12:46:42 10° SE
Cosmos 1980 Rocket 2.5 12:37:55 10° S 12:43:21 50° ESE 12:48:51 10° NE
Meteor 1-21 Rocket 4.4 12:38:10 10° N 12:44:00 64° ENE 12:49:52 10° SSE
PSLV R/B 3.9 12:40:15 10° SSE 12:44:18 89° ENE 12:48:16 10° NNW
Cosmos 2344 4.3 12:37:25 10° NW 12:45:33 53° NNE 12:56:27 10° ESE
Cosmos 1726 3.9 12:48:22 10° SW 12:51:43 35° WNW 12:55:06 10° N
X-37B 2.2 12:51:06 10° SW 12:53:51 26° S 12:56:35 10° ESE
Cosmos 371 Rocket 4.5 12:53:06 10° SSE 12:56:47 22° E 13:00:30 10° NE
Cosmos 1934 Rocket 4.5 12:51:25 10° SSE 12:56:49 35° E 13:02:13 10° NNE
Cosmos 1269 Rocket 4.0 12:52:02 10° NNW 12:57:19 64° ENE 13:02:34 10° SE
ATLAS 3B R/B 2.8 12:50:44 10° SW 12:57:20 80° NW 13:04:18 10° NE
CZ-2C R/B 3.3 12:52:17 10° NNE 12:57:28 37° E 13:02:34 10° SSE
Cosmos 2298 Rocket 4.1 12:52:10 10° SSW 12:57:29 87° WNW 13:02:49 10° NNE
SKYMED 2 4.1 12:53:42 10° NNE 12:57:46 37° E 13:01:48 10° SSE
Cosmos 1328 4.3 12:54:30 10° N 12:58:18 38° ENE 13:02:05 10° SE
Cosmos 2360 4.3 12:53:27 10° SSW 12:59:10 83° WNW 13:04:56 10° NNE
Cosmos 1758 3.7 12:55:48 10° SSW 12:59:45 67° WNW 13:03:43 10° N
Cosmos 1697 Rocket 3.0 12:54:06 10° SW 12:59:45 75° WNW 13:05:27 10° NNE
SJ-11-01 4.5 12:55:39 10° SE 13:00:09 49° ENE 13:04:43 10° N
SMAP 4.1 12:55:44 10° S 13:00:16 51° W 13:04:50 10° NNW
Cosmos 1125 Rocket 3.5 12:55:47 10° SSW 13:01:02 85° ESE 13:06:19 10° NNE
Cosmos 389 Rocket 2.4 12:59:43 10° SSW 13:03:07 87° WNW 13:06:34 10° NNE
Cosmos 1953 2.3 13:01:56 10° S 13:05:56 62° E 13:09:57 10° NNE
SL-19 R/B 4.3 13:00:33 10° NNE 13:06:18 63° ESE 13:11:48 10° S
YAOGAN 1 3.2 13:04:18 10° SE 13:08:11 34° ENE 13:12:05 10° N
Cosmos 1455 Rocket 3.2 13:05:02 10° SSE 13:09:18 50° E 13:13:37 10° NNE
USA 267 4.4 13:03:42 10° SSE 13:09:54 44° SW 13:16:09 10° WNW
CZ-2D R/B 3.6 13:06:17 10° S 13:10:07 71° WSW 13:14:01 10° NNW
H-2A R/B 3.4 13:08:13 10° NE 13:10:49 16° E 13:13:26 10° SE
Cosmos 1844 Rocket 3.5 13:07:40 10° NNW 13:12:36 31° NE 13:16:35 14° E
H-2A R/B 2.8 13:08:48 10° SE 13:12:53 44° ENE 13:16:51 10° N
Cosmos 2123 Rocket 4.1 13:08:04 10° N 13:14:22 60° ENE 13:20:35 10° SSE
Cosmos 2251 Rocket 4.3 13:09:49 10° N 13:14:31 31° NE 13:18:27 13° ESE
CENTAUR R/B 4.0 13:11:04 10° WNW 13:17:13 33° N 13:24:21 10° ENE
Cosmos 1892 4.1 13:14:58 10° NNE 13:17:45 19° ENE 13:18:31 18° E
Cosmos 839 Rocket 4.4 13:09:59 10° NW 13:18:11 64° NE 13:24:45 10° SE
CZ-4 R/B 1.8 13:16:52 10° SE 13:20:38 41° ENE 13:24:31 10° N
Okean O Rocket 1.6 13:17:36 10° SSE 13:21:57 88° WSW 13:26:20 10° NNW
NOSS 3-1 (C) 4.1 13:17:35 10° S 13:22:03 28° ESE 13:26:01 14° ENE
Cosmos 2278 3.7 13:16:56 10° SSW 13:22:35 73° ESE 13:28:18 10° NNE
Cosmos 1544 Rocket 3.9 13:19:05 10° SSE 13:23:16 41° E 13:27:29 10° NNE
CZ-4 R/B 4.4 13:20:59 10° SSE 13:25:07 83° ENE 13:29:17 10° NNW
IRS-1C Rocket 4.5 13:21:25 10° SE 13:26:19 42° ENE 13:31:16 10° N
Cosmos 1908 3.5 13:23:18 10° SSW 13:27:10 69° WNW 13:31:02 10° N
Cosmos 2278 Rocket 4.1 13:24:15 10° N 13:27:15 14° NNE 13:29:42 11° NE
SL-08 RB Rocket 3.7 13:24:45 10° SSE 13:29:13 60° ENE 13:33:47 10° N
Feng Yun 1-1 Rocket 4.2 13:26:24 10° SSE 13:31:57 74° ENE 13:37:41 10° NNW
Tiangong 3.5 13:30:53 10° SSW 13:32:20 13° SSE 13:33:16 11° SSE
SL-16 R/B 2.6 13:31:49 10° S 13:37:02 39° ESE 13:42:16 10° NE
Okean 1-7 Rocket 3.5 13:33:28 10° N 13:37:55 85° E 13:42:21 10° S
Okean-O 3.1 13:36:17 16° SE 13:39:27 39° ENE 13:43:36 10° N
Meteor 1-16 Rocket 4.5 13:34:05 10° SSW 13:39:59 77° WNW 13:45:46 10° N
Landsat 5 3.6 13:39:09 10° NNE 13:43:32 89° WNW 13:48:01 10° SSW
Cosmos 1602 Rocket 3.7 13:40:35 10° N 13:44:51 50° ENE 13:48:47 12° SSE
Meteor 1-4 Rocket 4.3 13:41:47 10° SSE 13:42:44 16° SSE 13:42:44 16° SSE
COSMO-SKYMED 1 2.7 13:41:38 10° NNE 13:46:00 78° WNW 13:50:19 10° SSW
Meteor 2-10 Rocket 4.0 13:40:58 10° SSE 13:46:07 40° E 13:51:07 10° NNE
ATLAS 5 CENTAUR R/B 1.4 13:43:32 10° SW 13:47:28 81° NW 13:50:48 18° NE
Cosmos 2322 Rocket 2.6 13:46:25 10° S 13:51:33 38° ESE 13:55:11 18° NE
HJ-1C 3.1 13:51:32 23° SSE 13:53:25 72° ENE 13:56:41 10° N
Cosmos 1844 4.0 13:49:05 10° NNW 13:54:42 47° NE 13:57:17 29° ESE
MOS 1-B Rocket 4.1 13:49:31 10° NNE 13:56:31 90° E 14:02:31 10° SSW
Meteor 1-11 4.3 13:51:00 10° NNW 13:56:37 81° W 14:02:15 10° S
Cosmos 304 Rocket 4.1 13:52:34 10° S 13:57:02 41° ESE 13:59:05 27° NE
Cosmos 2360 Rocket 3.1 13:58:45 10° SSE 14:02:29 28° SE 14:02:29 28° SE
SJ-6B 4.4 14:05:16 21° NNE 14:05:16 21° NNE 14:06:59 10° N
Orbus 7S? 4.3 13:54:11 10° WNW 14:04:19 88° NNE 14:06:22 36° ESE
Cosmos 1300 2.7 14:00:39 10° SSW 14:04:27 78° W 14:08:17 10° N
Cosmos 1605 Rocket 3.9 13:59:34 10° S 14:05:47 70° E 14:12:08 10° NNE
Lacrosse 4 Rocket 1.4 14:04:05 10° NW 14:08:24 88° WSW 14:10:10 36° SSE
Cosmos 1825 Rocket 4.1 14:04:24 10° N 14:07:55 37° NE 14:07:55 37° NE
DMSP B5D2-2 4.0 14:03:46 10° NNE 14:08:59 61° E 14:14:10 10° S
Cosmos 332 Rocket 3.9 14:04:19 10° S 14:09:03 53° ESE 14:11:25 28° NE
Cosmos 1408 2.9 14:06:22 10° N 14:09:16 46° NE 14:09:16 46° NE
Cosmos 1447 Rocket 4.3 14:05:59 10° N 14:12:09 73° ENE 14:18:17 10° SSE
CZ-4C R/B 4.0 14:09:12 10° N 14:12:29 45° WNW 14:15:40 10° SW
Cosmos 614 Rocket 3.8 14:07:30 10° NNW 14:12:36 79° ENE 14:15:09 30° SSE
Cosmos 1825 3.8 14:09:24 10° N 14:11:01 21° NNE 14:11:01 21° NNE
Cosmos 1758 Rocket 3.4 14:09:31 10° N 14:13:50 65° ENE 14:14:47 49° SE
Iridium 4 Rocket 4.2 14:10:07 10° NNW 14:14:27 49° W 14:19:08 10° SSW
H-2A R/B 4.1 14:10:29 10° SSW 14:15:11 30° W 14:19:58 10° NNW
USA 215 3.6 14:12:24 24° ENE 14:16:27 59° NNW 14:22:52 10° W
In-Cosmos 22 Rocket 3.9 14:13:09 10° NNW 14:18:33 85° E 14:22:56 15° SSE
NOSS 2-3 (E) 3.5 14:15:13 10° SSW 14:19:12 57° SE 14:19:14 57° SE
ARGOS 4.5 14:15:45 10° SSW 14:20:49 41° W 14:25:57 10° NNW
Cosmos 1626 Rocket 4.3 14:16:50 10° NNW 14:21:03 52° W 14:25:13 10° S
Cosmos 2263 Rocket 4.1 14:17:54 10° NW 14:22:34 28° WSW 14:27:13 10° SSW
USA 229 DEB 3.8 14:17:46 10° S 14:23:44 44° ESE 14:24:47 41° E
USA 229 3.8 14:17:52 10° S 14:23:51 44° ESE 14:24:48 42° E
Cosmos 1980 Rocket 3.6 14:22:19 10° WSW 14:27:34 37° NW 14:32:51 10° NNE
MetOp-A 4.1 14:24:22 16° SSE 14:28:43 85° WSW 14:34:08 10° NNW
X-37B 2.8 14:27:28 10° WSW 14:29:11 19° SW 14:29:11 19° SW
CSL-04 Debris 4.1 14:26:24 20° SSE 14:30:12 87° WSW 14:35:40 10° NNW
Cosmos 371 Rocket 3.8 14:31:59 10° SW 14:36:48 59° WNW 14:41:39 10° NNE
CZ-2C R/B 3.9 14:32:32 10° N 14:37:49 43° WNW 14:43:02 10° SW
Cosmos 1943 Rocket 4.3 14:36:46 10° N 14:39:27 13° NNE 14:40:04 13° NNE
OBJECT-B 3.5 14:44:51 13° NNW 14:44:51 13° NNW 14:45:17 10° NNW
YAOGAN 1 4.3 14:40:25 10° SSW 14:44:17 31° W 14:48:11 10° NNW
CSL-04 Rocket 3.8 14:42:00 26° S 14:45:15 75° WSW 14:50:52 10° NNW
NOSS 3-1 (A) 3.4 14:40:44 10° SSW 14:45:09 52° SSE 14:45:09 52° SSE
Cosmos 2237 4.0 14:40:50 10° SSW 14:46:33 75° ESE 14:47:36 59° NE
H-2A R/B 2.4 14:43:06 10° N 14:47:11 61° WNW 14:51:16 10° SSW
ATLAS 3B R/B 3.9 14:42:56 10° W 14:49:01 35° NNW 14:53:38 17° NE
SL-8 R/B 4.0 14:45:45 10° WSW 14:49:51 56° SSW 14:49:51 56° SSW
Cosmos 2369 Rocket 4.5 14:49:56 10° N 14:51:21 11° NNE 14:52:21 10° NNE
Ariane Rocket 4.0 14:55:06 34° NNE 14:55:06 34° NNE 14:58:16 10° N
Cosmos 1892 3.8 14:50:01 10° NNW 14:53:29 41° W 14:53:29 41° W
CZ-4 R/B 3.7 14:52:35 10° SW 14:55:48 23° W 14:59:05 10° NW
Cosmos 1844 Rocket 3.0 14:51:23 10° NW 14:56:54 63° WSW 14:58:16 47° SSW
Cosmos 2251 Rocket 4.2 14:51:57 10° NNW 14:57:03 51° WSW 14:58:58 34° SSW
SeaSat 1 4.4 14:58:58 18° NNE 14:58:58 18° NNE 15:01:14 10° N
Cosmos 2344 4.5 14:51:45 10° NW 15:00:42 68° SW 15:08:52 24° SSE
Cosmos 2346 Rocket 4.3 15:01:17 10° N 15:07:35 83° E 15:07:49 81° ESE
CENTAUR R/B 3.8 15:02:55 10° NW 15:09:57 41° NNE 15:11:33 37° NE
Cosmos 407 Rocket 3.7 15:05:04 10° NNW 15:09:58 72° WNW 15:09:58 72° WNW
ATLAS 5 CENTAUR R/B 4.2 14:53:05 10° W 15:11:00 44° NNW 15:13:29 32° NNE
NOSS 3-1 (C) 3.5 15:06:48 10° SW 15:12:15 69° NW 15:13:27 55° NNE
Cosmos 2278 Rocket 3.2 15:07:39 10° NNW 15:11:33 34° NNE 15:11:33 34° NNE
Cosmos 1140 Rocket 4.0 15:14:54 10° NNW 15:19:13 58° WNW 15:19:13 58° WNW
SL-16 R/B 3.1 15:15:39 10° WSW 15:21:05 45° NW 15:24:52 19° NNE
Cosmos 2100 Rocket 4.0 15:25:19 78° WSW 15:25:33 80° W 15:31:58 10° N
Resurs 01 Rocket 4.0 15:31:18 16° N 15:31:18 16° N 15:32:16 10° N
Cosmos 1459 Rocket 4.4 15:33:19 56° N 15:33:19 56° N 15:38:08 10° N
ATLAS 5 CENTAUR R/B 3.6 15:29:15 10° WNW 15:32:20 24° NNW 15:32:20 24° NNW
Cosmos 2322 Rocket 3.1 15:30:10 10° SW 15:35:32 45° NW 15:37:04 37° N
Cosmos 2173 Rocket 4.4 15:43:48 60° NW 15:43:48 60° NW 15:49:20 10° N
Lacrosse 4 Rocket 4.3 15:44:24 10° WNW 15:46:26 13° WSW 15:46:29 13° WSW
Cosmos 2360 Rocket 3.7 15:41:44 10° SW 15:44:23 28° WSW 15:44:23 28° WSW
USA 215 3.7 15:59:45 53° NNW 15:59:45 53° NNW 16:05:24 10° WNW
Cosmos 1943 Rocket 4.4 16:19:46 10° NNW 16:21:34 19° N 16:21:34 19° N
ATLAS 3B R/B 4.2 16:35:42 10° NW 16:40:53 29° N 16:40:53 29° N
CENTAUR R/B 3.9 16:53:46 10° NW 16:58:42 45° NW 16:58:42 45° NW
CZ-4C R/B 4.0 21:27:40 32° N 21:28:14 33° NNE 21:34:59 10° E
USA 229 DEB 4.2 21:53:21 59° ESE 21:53:21 59° ESE 21:59:36 10° SE
USA 229 4.2 21:53:24 59° E 21:53:24 59° E 21:59:42 10° SE
ADEOS II 4.1 21:52:59 10° NNE 21:54:42 21° N 21:54:42 21° N
Lacrosse 5 3.8 22:01:44 26° E 22:01:44 26° E 22:04:04 10° E
ATLAS 2AS CENTAUR R/B 3.7 22:02:29 40° NNW 22:02:29 40° NNW 22:09:14 10° NE
NOSS 3-1 (A) 3.9 22:14:29 84° SE 22:14:29 84° SE 22:22:49 10° SE
SL-16 R/B 2.9 22:24:36 44° NNE 22:25:51 52° NE 22:31:23 10° SE
COSMOS 2406 3.9 22:32:58 48° N 22:32:58 48° N 22:37:14 10° NNE
ARIANE 5 R/B 3.1 22:28:22 10° NNE 22:32:39 53° ENE 22:32:39 53° ENE
IRS-1C 4.5 22:29:45 10° NNE 22:34:22 62° NE 22:34:22 62° NE
Resurs 1-4 Rocket 4.3 22:33:03 10° N 22:34:04 14° NNW 22:34:04 14° NNW
Lacrosse 5 rocket 3.0 22:40:53 34° E 22:40:53 34° E 22:43:42 10° ENE
Cosmos 2322 Rocket 2.9 22:36:41 23° NNW 22:40:04 51° NE 22:45:34 10° SE
Cosmos 2082 Rocket 2.3 22:42:03 70° NNE 22:42:03 70° NNE 22:47:07 10° NNE
Cosmos 2333 Rocket 4.1 22:43:11 10° NNW 22:48:00 27° NE 22:52:50 10° E
Cosmos 2219 Rocket 4.3 22:45:08 10° NNW 22:49:36 23° NE 22:54:04 10° E
Cosmos 2360 Rocket 3.3 22:46:13 10° NNW 22:51:37 41° NE 22:56:58 10° ESE
Cosmos 1833 Rocket 3.6 22:57:46 36° NNW 22:57:46 36° NNW 23:02:00 10° NNE
Cosmos 1461 4.2 22:58:53 35° NNE 22:58:53 35° NNE 23:01:27 10° NE
ATLAS CENTAUR R/B 2.3 23:01:45 46° NNE 23:01:45 46° NNE 23:04:57 10° NE
NOSS 2-2 (D) 4.2 23:01:12 63° NNW 23:02:08 84° NE 23:09:07 10° SE
Cosmos 962 Rocket 4.3 22:59:42 10° NNW 23:05:57 77° W 23:12:15 10° S
Cosmos 836 Rocket 4.3 23:07:14 81° SW 23:07:29 85° WNW 23:12:49 10° NNE
Cosmos 1378 Rocket 4.4 23:06:09 25° SSE 23:08:27 49° E 23:12:46 10° NNE
Cosmos 371 Rocket 3.5 23:06:27 28° NNW 23:09:03 71° ENE 23:13:54 10° SSE
Cosmos 2181 Rocket 4.4 23:03:53 10° S 23:09:55 61° E 23:16:06 10° NNE
Okean 2 3.9 23:11:14 50° SE 23:11:51 56° E 23:15:53 10° NNE
ERS-1 4.4 23:06:40 10° NNE 23:11:53 74° WNW 23:12:02 73° W
NOSS 2-2 (E) 4.2 23:11:19 61° WNW 23:12:19 76° SW 23:19:34 10° SE
FENGYUN 3A 3.7 23:10:20 10° NNE 23:15:48 79° ESE 23:19:06 25° S
IRS-P3 4.1 23:10:38 10° N 23:15:45 59° WNW 23:15:45 59° WNW
CZ-2D R/B 4.4 23:13:52 10° NNW 23:13:57 10° NNW 23:13:57 10° NNW
CZ-2C R/B 2.2 23:11:23 10° NNE 23:16:18 88° WNW 23:17:00 66° SSW
CZ-4C R/B 3.2 23:12:52 20° NW 23:17:57 67° NE 23:26:08 10° ESE
Cosmos 1707 3.2 23:17:57 53° SE 23:18:30 60° E 23:22:21 10° NNE
USA 234 4.3 23:13:01 10° ENE 23:19:05 39° SE 23:24:07 15° SSW
CZ-2D R/B 4.2 23:20:45 10° N 23:23:30 40° N 23:23:30 40° N
IDEFIX/ARIANE 42P 4.1 23:23:37 10° N 23:26:13 21° NNW 23:26:13 21° NNW
GP-B 4.3 23:29:59 28° NNW 23:29:59 28° NNW 23:32:16 10° N
SL-8 Rocket 3.8 23:22:02 10° NNW 23:28:16 75° W 23:34:25 10° S
Cosmos 2221 Rocket 3.7 23:28:52 56° NW 23:28:52 56° NW 23:32:44 10° N
SME Rocket 3.5 23:24:40 10° S 23:30:29 54° WSW 23:30:35 54° W
Nadezhda 1 Rocket 4.3 23:32:00 41° WNW 23:32:12 41° WNW 23:37:56 10° N
Cosmos 2218 Rocket 3.9 23:27:02 10° NNW 23:33:29 80° W 23:39:51 10° S
Cosmos 2237 4.1 23:30:41 10° NNW 23:36:27 85° WSW 23:42:11 10° SSE
ADEOS II 4.1 23:34:09 10° NNW 23:35:38 14° NNW 23:35:38 14° NNW
ALOS 2.1 23:32:46 10° N 23:37:27 75° WNW 23:39:29 34° SSW
Lacrosse 5 1.9 23:40:59 46° W 23:42:12 61° SW 23:47:11 10° SE
USA 229 DEB 4.4 23:40:54 33° W 23:42:33 37° WSW 23:49:30 10° S
USA 229 4.4 23:40:56 33° W 23:42:40 37° WSW 23:49:37 10° S
Okean 1 Rocket 2.9 23:38:45 10° NNW 23:43:11 73° W 23:47:37 10° S
COSMOS 2455 2.8 23:42:12 30° SW 23:45:19 78° NW 23:51:24 10° NE
Cosmos 1674 Rocket 3.4 23:44:14 38° SSW 23:45:43 66° WNW 23:50:03 10° N
PAYLOAD A 4.2 23:41:27 10° N 23:46:20 50° WNW 23:48:06 35° WSW
Cosmos 44 4.4 23:48:17 26° SSW 23:48:17 26° SSW 23:50:52 10° S
Cosmos 1626 3.6 23:44:32 10° SSE 23:47:59 39° E 23:51:28 10° NNE
Cosmos 1340 3.7 23:50:10 30° NNW 23:50:10 30° NNW 23:52:36 10° N
Cosmos 1674 2.9 23:48:41 10° S 23:52:21 68° E 23:56:06 10° NNE
CZ-2C R/B 2.6 23:49:09 10° N 23:52:50 62° WNW 23:53:38 47° SW
COSMOS 2428 3.9 23:47:34 10° NNW 23:52:59 41° NE 23:58:22 10° ESE
PSLV R/B 3.5 23:49:09 10° NNE 23:53:35 88° W 23:57:57 10° SSW
SL-4 R/B 2.1 23:53:03 45° W 23:54:11 65° SSW 23:58:16 10° ESE
ATLAS CENTAUR R/B 3.0 23:56:44 13° NNE 23:56:44 13° NNE 23:57:26 10° NE
